Location: Brivio
(45.7333°N, 9.4500°E)
Time: 03:22:35
(UTC+00:00)

Meteor 1-11 - Pass Details

Date: 18 October 2019
Orbit: 842 x 885 km, 81.2° (Epoch: 11 November)

Event Time Altitude Azimuth Distance (km) Brightness Sun altitude
Rises 17:25:00 0° 352° (N) 3,469 7.5 -10.0°
Reaches altitude 10° 17:27:29 10° 356° (N) 2,533 6.7 -10.4°
Maximum altitude 17:33:11 59° 76° (ENE) 1,013 4.3 -11.4°
Drops below altitude 10° 17:38:53 10° 155° (SSE) 2,537 6.5 -12.4°
Sets 17:41:22 0° 159° (SSE) 3,474 7.2 -12.8°
